This demonstration page uses our WeatherBlox Daily Observations layout. Learn more.

Left ArrowRight Arrow

39.51506, -84.39828

Hourly Observations for June 15, 2016

Temp ( °F °C ) Dew Point ( °F °C ) Humidity (%) Winds ( mph kmh ) Pressure ( in mb ) Visibility ( mi km ) Precip ( " mm )
12:15 am 00:15 Clear 69 20.8 63 17 79 79 N N/A 29.88 1012 10 16 N/A
12:35 am 00:35 Clear 69 20.8 63 17 79 79 N N/A 29.88 1012 10 16 N/A
12:55 am 00:55 Clear 69 20.8 63 17.1 79 79 N N/A 29.88 1012 10 16 N/A
1:15 am 01:15 Clear 69 20.8 63 17.3 80 80 N N/A 29.88 1012 10 16 N/A
1:35 am 01:35 Clear 69 20.8 63 17.3 80 80 N N/A 29.88 1012 10 16 N/A
1:55 am 01:55 Clear 69 20.8 63 17.3 80 80 N N/A 29.88 1012 10 16 N/A
2:15 am 02:15 Clear 69 20.8 64 17.5 82 82 N N/A 29.88 1012 10 16 N/A
2:35 am 02:35 Clear 69 20.8 64 17.5 82 82 N N/A 29.88 1012 10 16 N/A
2:55 am 02:55 Clear 68 20 62 16.6 81 81 N N/A 29.85 1011 10 16 N/A
3:15 am 03:15 Clear 69 20.8 64 17.7 83 83 N N/A 29.85 1011 10 16 N/A
3:35 am 03:35 Hazy 68 20 62 16.8 82 82 N N/A 29.85 1011 5 8 N/A
3:55 am 03:55 Clear 67 19.5 62 16.5 83 83 N N/A 29.85 1011 10 16 N/A
4:15 am 04:15 Clear 67 19.4 62 16.4 83 83 N N/A 29.85 1011 7 11 N/A
4:35 am 04:35 Hazy 67 19.5 62 16.5 83 83 N N/A 29.85 1011 3 5 N/A
4:55 am 04:55 Mostly Cloudy 67 19.5 62 16.5 83 83 N N/A 29.85 1011 7 11 N/A
5:35 am 05:35 Mostly Cloudy 69 20.5 64 17.6 84 84 N N/A 29.85 1011 10 16 N/A
5:55 am 05:55 Partly Cloudy 69 20.3 63 17.3 83 83 N N/A 29.85 1011 10 16 N/A
6:15 am 06:15 Mostly Cloudy 69 20.7 64 17.7 83 83 N N/A 29.85 1011 7 11 N/A
6:35 am 06:35 Mostly Cloudy with Haze 69 20.8 64 18 84 84 N N/A 29.88 1012 5 8 N/A
6:55 am 06:55 Mostly Cloudy 69 20.8 64 17.8 83 83 N N/A 29.85 1011 7 11 N/A
7:15 am 07:15 Partly Cloudy 69 20.8 64 17.7 83 83 N 3 6 29.88 1012 10 16 N/A
7:35 am 07:35 Mostly Cloudy 69 20.8 64 17.5 82 82 N N/A 29.88 1012 10 16 N/A
7:55 am 07:55 Partly Cloudy 70 21 64 17.7 82 82 N N/A 29.88 1012 10 16 N/A
8:15 am 08:15 Sunny 74 23.6 67 19.6 78 78 N N/A 29.85 1011 10 16 N/A
8:35 am 08:35 Partly Cloudy 74 23.6 66 18.8 75 75 S 7 11 29.88 1012 10 16 N/A
8:55 am 08:55 Partly Cloudy 77 25.1 66 19.1 69 69 SSW 7 11 29.88 1012 10 16 N/A
9:15 am 09:15 Mostly Cloudy 76 24.7 67 19.4 72 72 SSW 9 15 29.88 1012 10 16 N/A
9:35 am 09:35 Mostly Cloudy 74 23.6 65 18.6 74 74 SSW 7 11 29.88 1012 10 16 N/A
9:55 am 09:55 Mostly Cloudy with Light Rain 74 23.6 66 18.9 75 75 SSW 8 13 29.85 1011 10 16 N/A
10:15 am 10:15 Cloudy with Light Rain 74 23.6 67 19.6 78 78 S 8 13 29.88 1012 7 11 N/A
10:35 am 10:35 Partly Cloudy 75 23.7 67 19.6 78 78 SSW 6 9 29.85 1011 10 16 N/A
10:55 am 10:55 Partly Cloudy 77 25.1 68 19.8 73 73 SSW 6 9 29.88 1012 10 16 N/A
11:15 am 11:15 Mostly Cloudy 77 25.1 68 19.9 73 73 S 5 7 29.88 1012 10 16 N/A
11:35 am 11:35 Partly Cloudy 80 26.5 69 20.6 70 70 SSW 6 9 29.85 1011 10 16 N/A
11:55 am 11:55 Partly Cloudy 81 27.2 70 20.9 69 69 S 14 22 29.80 1009 10 16 N/A
12:15 pm 12:15 Partly Cloudy 82 28 70 21.1 66 66 SSW 9 15 29.83 1010 10 16 N/A
12:35 pm 12:35 Partly Cloudy 83 28.1 70 21.1 66 66 SSW 12 19 29.83 1010 10 16 N/A
12:55 pm 12:55 Mostly Cloudy 83 28.1 69 20.4 63 63 SW 14 22 29.83 1010 10 16 N/A
1:15 pm 13:15 Partly Cloudy 83 28.6 69 20.6 62 62 SSW 12 19 29.80 1009 10 16 N/A
1:35 pm 13:35 Sunny 85 29.3 69 20.8 60 60 SSW 12 19 29.80 1009 10 16 N/A
1:55 pm 13:55 Partly Cloudy 87 30.7 71 21.9 59 59 SW 13 20 29.80 1009 10 16 N/A
2:15 pm 14:15 Mostly Cloudy 85 29.3 70 20.9 61 61 SSW 12 19 29.80 1009 10 16 N/A
2:35 pm 14:35 Partly Cloudy 89 31.9 73 22.9 59 59 SSW 10 17 29.80 1009 10 16 N/A
2:55 pm 14:55 Mostly Cloudy 87 30.7 72 22 60 60 SW 10 17 29.80 1009 10 16 N/A
3:15 pm 15:15 Mostly Cloudy 87 30.5 71 21.8 60 60 SSW 12 19 29.80 1009 10 16 N/A
3:35 pm 15:35 Partly Cloudy 90 32.1 72 22.4 57 57 S 9 15 29.80 1009 10 16 N/A
3:55 pm 15:55 Partly Cloudy 90 32.1 72 22.2 56 56 SW 10 17 29.80 1009 10 16 N/A
4:15 pm 16:15 Partly Cloudy 90 32.1 71 21.7 54 54 WSW 9 15 29.77 1008 10 16 N/A
4:35 pm 16:35 Partly Cloudy 90 32.1 71 21.7 54 54 SSW 12 19 29.77 1008 10 16 N/A
4:55 pm 16:55 Partly Cloudy 90 32.1 70 21.3 53 53 SSW 12 19 29.77 1008 10 16 N/A
5:15 pm 17:15 Sunny 90 32.1 71 21.4 53 53 SSW 8 13 29.77 1008 10 16 N/A
5:35 pm 17:35 Sunny 87 30.7 70 21.1 57 57 SW 9 15 29.77 1008 10 16 N/A
5:55 pm 17:55 Sunny 87 30.7 70 21.3 57 57 SW 7 11 29.77 1008 10 16 N/A
6:15 pm 18:15 Sunny 85 29.3 69 20.6 59 59 SW 5 7 29.77 1008 10 16 N/A
6:35 pm 18:35 Sunny 84 28.7 69 20.6 62 62 WSW 5 7 29.77 1008 10 16 N/A
6:55 pm 18:55 Sunny 83 28.1 70 21 65 65 N N/A 29.77 1008 10 16 N/A
7:15 pm 19:15 Mostly Cloudy 82 27.9 68 20 62 62 WNW 17 28 29.80 1009 10 16 N/A
7:35 pm 19:35 Cloudy with Light Rain 70 21 62 16.6 76 76 S 22 35 29.83 1010 5 8 N/A
7:55 pm 19:55 Cloudy with Light Rain 74 23.6 62 16.4 64 64 WSW 8 13 29.83 1010 10 16 N/A
8:15 pm 20:15 Cloudy with Rain 70 21 62 16.4 75 75 W 13 20 29.85 1011 7 11 N/A
8:35 pm 20:35 Cloudy with Rain 69 20.8 62 16.8 78 78 ESE 14 22 29.80 1009 7 11 N/A
8:55 pm 20:55 Mostly Cloudy with Light Rain 69 20.8 63 17 79 79 SW 8 13 29.80 1009 10 16 N/A
9:15 pm 21:15 Clear 69 20.8 63 17 79 79 WSW 6 9 29.83 1010 10 16 N/A
9:35 pm 21:35 Clear 69 20.8 63 17 79 79 SSW 8 13 29.83 1010 10 16 N/A
9:55 pm 21:55 Clear 69 20.8 63 17.2 80 80 SSE 3 6 29.83 1010 10 16 N/A
10:15 pm 22:15 Clear 69 20.8 63 17.3 80 80 N N/A 29.83 1010 10 16 N/A
10:35 pm 22:35 Clear 69 20.8 64 17.5 82 82 S 5 7 29.83 1010 10 16 N/A
10:55 pm 22:55 Clear 69 20.8 64 17.5 82 82 N N/A 29.83 1010 10 16 N/A
11:15 pm 23:15 Clear 69 20.8 64 17.5 82 82 N N/A 29.83 1010 10 16 N/A
11:35 pm 23:35 Clear 69 20.8 64 17.6 82 82 SSW 3 6 29.83 1010 10 16 N/A
11:55 pm 23:55 Clear 69 20.8 64 17.7 83 83 SSW 3 6 29.83 1010 10 16 N/A

Powered by AerisWeather